Overview Statistics Trail Chart Weather Telemetry Raw packets
 

This is the latest recevied weather packets stored in our database for station/object K7CTM. If no packets are shown the sender has not sent any weather packets the latest 10 day(s).

<< 2 3 4 5 6 7 8 >>
Time Temp. Humidity Pressure Rain* Wind** Luminosity Snow
1788599312 15° C 50% 1026 hPa 0 mm - 0 W/m² -
1788599008 15.56° C 48% 1026.1 hPa 0 mm - 0 W/m² -
1788598707 15.56° C 48% 1026.2 hPa 0 mm - 0 W/m² -
1788598402 16.11° C 47% 1025.8 hPa 0 mm - 0 W/m² -
1788598098 15.56° C 48% 1025.8 hPa 0 mm - 0 W/m² -
1788597797 15.56° C 48% 1025.7 hPa 0 mm - 0 W/m² -
1788597492 15° C 48% 1026 hPa 0 mm - 0 W/m² -
1788597188 15.56° C 49% 1025.8 hPa 0 mm - 0 W/m² -
1788596883 15.56° C 48% 1025.6 hPa 0 mm - 0 W/m² -
1788596580 16.11° C 47% 1025.8 hPa 0 mm - 0 W/m² -
1788596280 16.67° C 45% 1025.7 hPa 0 mm - 0 W/m² -
1788595975 17.22° C 44% 1025.6 hPa 0 mm - 0 W/m² -
1788595674 17.78° C 43% 1025.8 hPa 0 mm - 0 W/m² -
1788595374 17.78° C 42% 1025.6 hPa 0 mm - 0 W/m² -
1788595073 17.78° C 43% 1025.6 hPa 0 mm - 0 W/m² -
1788594773 17.22° C 43% 1025.6 hPa 0 mm - 0 W/m² -
1788594472 17.78° C 43% 1025.6 hPa 0 mm - 0 W/m² -
1788594168 18.33° C 42% 1025.4 hPa 0 mm - 0 W/m² -
1788593863 18.33° C 42% 1025.8 hPa 0 mm - 0 W/m² -
1788593558 17.78° C 42% 1025.8 hPa 0 mm - 0 W/m² -
1788593258 17.78° C 42% 1026.2 hPa 0 mm - 0 W/m² -
1788592953 18.33° C 41% 1026 hPa 0 mm - 0 W/m² -
1788592650 18.89° C 41% 1025.3 hPa 0 mm - 0 W/m² -
1788592346 18.89° C 40% 1025.6 hPa 0 mm - 0 W/m² -
1788592040 19.44° C 39% 1025.5 hPa 0 mm - 0 W/m² -

* Rain latest hour (hover to see other rain measurements)
** Current wind speed in m/s (hover to see current wind gust speed)